Duncanville, TX

5:13 PM CDT on June 17, 2018 (GMT -0500)
Irwin Keasler Red Bird North | | Change Station

Elev 732 ft 32.67 °N, 96.92 °W | Updated 23 seconds ago

Partly Cloudy
Partly Cloudy
95.18 °F
Feels Like 103 °F
N
4.7
Wind Variable Wind from South
Gusts 7.0 mph

Today
High -- | Low -- °F
--% Chance of Precip.
Yesterday
High -- | Low -- °F
Precip. -- in
Pressure 29.88 in
Visibility 10.0 miles
Clouds Few 5000 ft
Heat Index 103 °F
Dew Point 71 °F
Humidity 46%
Rainfall 0.00 in
Snow Depth Not available.
6:19 AM 8:37 PM
Waxing Crescent, 23% visible
METAR KRBD 172153Z 13012G19KT 10SM FEW050 35/21 A2991 RMK AO2 SLP118 T03500211 $
Pressure 29.88 in
Visibility 10.0 miles
Clouds Few 5000 ft
Heat Index 103 °F
Dew Point 71 °F
Humidity 46%
Rainfall 0.00 in
Snow Depth Not available.
6:19 AM 8:37 PM
Waxing Crescent, 23% visible
METAR KRBD 172153Z 13012G19KT 10SM FEW050 35/21 A2991 RMK AO2 SLP118 T03500211 $

Get Severe Weather Alerts

Thanks for signing up!

Be on the lookout for a verification email in your inbox.

You'll start receiving the daily forecast at 6 AM.

×

10-Day Weather Forecast

Almanac

Astronomy

Jun. 17, 2018 Rise Set
Actual Time
Civil Twilight
Nautical Twilight
Astronomical Twilight
Moon
Length of Visible Light
Length of Day
Tomorrow will be .
, % of the Moon is Illuminated

Today's Extremes

State Highs State Lows

Community

WunderPhotos

Category 6

Welcome to Category 6. This is the collective home for Weather Underground's featured writeups by Dr. Jeff Masters (right), Bob Henson (left), Chris Burt, and other regular contributors.

Nearby

Air Quality

  Air Quality AQ Index Pollutant
Not available.

Snow Depth

Station Depth Elevation

Earthquake Activity

City Distance Mag. Time & Date
Minimum magnitude displayed is 2.5.

Coastal Water Temperatures

Place Temperature

Stations

Nearby Weather Stations

Station Location Temp. Windchill Dew Point Humidity Wind Precip. Elev Updated Type
                   

Watches & Warnings

There are currently no watches in effect.